Terminal Aerodrome Forecast
Issued by NWS Portland, OR

Home | Current Version | Previous Version | Text Only | Print | Product List | Glossary On
Versions: 1 2 3 4 5 6 7 8 9 10 11 12 13 14 15 16 17 18 19 20 21 22 23 24 25 26 27 28 29 30 31 32 33 34 35 36 37 38 39 40 41
000
FTUS46 KPQR 010543
TAFAST
TAF
KAST 010543Z 0106/0206 12005KT P6SM OVC150
     FM011200 18003KT P6SM BKN050 OVC080
     FM011400 17008KT 6SM -RA BR BKN020 OVC030
     FM012000 22008G15KT 4SM -SHRA BR BKN015
     FM020300 19005KT 5SM BR SCT008 BKN015=

USA.gov is the U.S. government's official web portal to all federal, state and local government web resources and services.